Find Starlink 34660

NORAD ID: 64800 Int'l Des: 2025-150 Owner: SPXS Country: US Constellation: starlink operational
LEOCIRCULAR

現在のビュー

3D地球を読み込み中...

About Starlink 34660

Starlink 34660 (NORAD 64800) is a starlink constellation satellite (v2 mini) launched Jul 16, 2025 by SPXS of US. It operates in LEO, CIRCULAR orbit with a mass of 575.00 kg.

次回通過

Passes for default location (London). Set your location on the main map for personalized predictions.

高度履歴

Loading altitude history...

軌道要素

1 64800U 25150L 26265.66653041 .00002440 00000-0 21215-3 0 9997
2 64800 70.0031 357.7443 0003499 269.4808 90.5950 14.98333662 66023
Epoch: Sep 22, 2026 • Age: 16 hours

現在のステータス

高度 576.7 km
遠地点 / 近地点 N/A
速度 7.57 km/s
衛星直下点 30.32°N, 116.37°W
打ち上げ日 Jul 16, 2025
運用期間 1.1 years
タイプ internet

技術仕様

分類 Payload
質量 575.00 kg
乾燥質量 530.00 kg
長さ 0.30 m
スパン 29.00 m
形状 ? Box + pan
製造者 SPXS
バスタイプ Starlink V2MO
フェーズステータス In Orbit
所有者/国 SPXS/US

Most Searched